Flag for Switzerland Weather past 2 weeks in Arth, Schwyz, Switzerland

Now
67 °F

Mild.


Feels Like: 67 °F
Forecast: 43 / 62 °F
Wind: 2 mph from Northwest

Location: Altdorf

Current Time: Aug 27, 2014 at 4:54:40 PM

Latest Report: Aug 27, 2014 at 3:00 PM


Visibility: N/A

Pressure: 29.99 "Hg

Humidity: 68%

Dew point: 56 °F

Location of ArthLocation

Historic Weather in Arth — Graph

°F

Arth temperature yesterday

Maximum temperature yesterday: 62 °F (at 2:00 PM)
Minimum temperature yesterday: 57 °F (at 12:00 AM)
Average temperature yesterday: 60 °F

Past Weeks' High & Low Weather Summary

 TemperatureHumidityPressure
High72 °F (Aug 18, 2:00 PM)99% (Aug 27, 12:00 AM)30.22 "Hg (Aug 27, 12:00 AM)
Low46 °F (Aug 17, 6:00 AM)47% (Aug 24, 3:00 PM)29.64 "Hg (Aug 13, 10:00 AM)
Average60 °F78%29.99 "Hg
* Reported Aug 12 3:00 PM — Aug 27 3:00 PM, Arth, Weather by CustomWeather, © 2014

Note: Actual official high and low records may vary slightly from our data, if they occured in-between our weather recording intervals... More about our weather records

Advertising

Arth weather history for previous 24 hours

 ConditionsComfort  
Time TempWeatherWind HumidityBarometerVisibility
3:00 PM
Aug 27
67 °FMild.2 mph68%29.99 "HgN/A
2:00 PM66 °FPartly sunny.2 mph72%29.99 "Hg11 mi
1:00 PM66 °FMild.1 mph72%29.99 "HgN/A
12:00 PM64 °FMild.6 mph78%29.99 "HgN/A
10:00 AM61 °FCool.3 mph90%29.98 "HgN/A
9:00 AM59 °FCool.3 mph97%29.97 "HgN/A
8:00 AM58 °FRain. Overcast.2 mph98%29.96 "Hg3 mi
7:00 AM57 °FCool.1 mph98%29.94 "HgN/A
6:00 AM57 °FCool.3 mph96%29.93 "HgN/A
5:00 AM59 °FRain. Overcast.2 mph88%29.92 "Hg9 mi
4:00 AM60 °FCool.5 mph89%29.90 "HgN/A
3:00 AM59 °FCool.3 mph97%29.90 "HgN/A
2:00 AM58 °FOvercast.3 mph99%29.88 "Hg11 mi
1:00 AM58 °FCool.1 mph98%29.87 "HgN/A
12:00 AM59 °FCool.1 mph99%29.87 "HgN/A
11:00 PM
Aug 26
60 °FOvercast.1 mph98%29.86 "Hg9 mi
10:00 PM60 °FCool.1 mph98%29.87 "HgN/A
9:00 PM61 °FCool.1 mph97%29.85 "HgN/A
8:00 PM61 °FLow clouds.No wind96%29.83 "Hg5 mi
7:00 PM61 °FCool.1 mph94%29.81 "HgN/A
6:00 PM61 °FCool.3 mph92%29.80 "HgN/A
5:00 PM61 °FRain. Overcast.No wind92%29.80 "Hg3 mi
4:00 PM61 °FCool.1 mph91%29.81 "HgN/A
Weather by CustomWeather, © 2014

See weather overviewHow to use our weather pages